1998-067XM

Last updated on Sun Oct 12 2025 00:02:06 GMT+0000 (Coordinated Universal Time)

1 65733U 98067XM 25284.18940532 .00086095 00000+0 12314-2 0 9997 2 65733 51.6320 91.6004 0001329 113.9505 246.1625 15.55478218 3399

Satellite not in orbit

1998-067XM